Previsão horária em Senkovo

Hoje, 25 Novembro, Quarta-feira

Tempo Temperatura Precipitação Vento Pressão Humidade
00:00 +2°C° 0.1 mm 2 m/s 745 mmHg 94%
01:00 +2°C° 0.1 mm 2 m/s 745 mmHg 95%
02:00 +3°C° 0 mm 1 m/s 745 mmHg 98%
03:00 +3°C° 0.7 mm 1 m/s 745 mmHg 98%
04:00 +3°C° 0.7 mm 1 m/s 745 mmHg 98%
05:00 +4°C° 0.7 mm 1 m/s 745 mmHg 98%
06:00 +3°C° 0.9 mm 1 m/s 745 mmHg 98%
07:00 +3°C° 0.9 mm 1 m/s 745 mmHg 98%
08:00 +3°C° 0.9 mm 1 m/s 745 mmHg 97%
09:00 +3°C° 0 mm 1 m/s 746 mmHg 97%
10:00 +4°C° 0 mm 1 m/s 746 mmHg 96%
11:00 +3°C° 0 mm 0 m/s 746 mmHg 95%
12:00 +3°C° 0 mm 0 m/s 747 mmHg 94%
13:00 +3°C° 0 mm 0 m/s 747 mmHg 93%
14:00 +3°C° 0 mm 0 m/s 748 mmHg 92%
15:00 +3°C° 0 mm 0 m/s 748 mmHg 93%
16:00 +2°C° 0 mm 0 m/s 748 mmHg 95%
17:00 +3°C° 0 mm 1 m/s 748 mmHg 96%
18:00 +3°C° 0 mm 1 m/s 748 mmHg 96%
19:00 +3°C° 0 mm 1 m/s 748 mmHg 96%
20:00 +2°C° 0 mm 2 m/s 748 mmHg 96%
21:00 +3°C° 0.4 mm 2 m/s 748 mmHg 96%
22:00 +3°C° 0.4 mm 2 m/s 748 mmHg 96%
23:00 +2°C° 0.4 mm 3 m/s 748 mmHg 96%

Amanhã, 26 Novembro, Quinta-feira

Tempo Temperatura Precipitação Vento Pressão Humidade
00:00 +3°C° 0.7 mm 3 m/s 748 mmHg 96%
01:00 +3°C° 0.7 mm 3 m/s 747 mmHg 97%
02:00 +5°C° 0.7 mm 2 m/s 747 mmHg 97%
03:00 +4°C° 0.2 mm 3 m/s 747 mmHg 97%
04:00 +5°C° 0.2 mm 3 m/s 747 mmHg 96%
05:00 +5°C° 0.2 mm 3 m/s 747 mmHg 96%
06:00 +5°C° 0 mm 3 m/s 747 mmHg 95%
07:00 +5°C° 0 mm 3 m/s 747 mmHg 94%
08:00 +5°C° 0 mm 3 m/s 747 mmHg 93%
09:00 +5°C° 0 mm 3 m/s 746 mmHg 90%
10:00 +5°C° 0 mm 3 m/s 746 mmHg 87%
11:00 +5°C° 0 mm 4 m/s 746 mmHg 83%
12:00 +4°C° 0 mm 4 m/s 746 mmHg 81%
13:00 +4°C° 0 mm 4 m/s 745 mmHg 79%
14:00 +3°C° 0 mm 4 m/s 745 mmHg 77%
15:00 +3°C° 0 mm 3 m/s 745 mmHg 78%
16:00 +2°C° 0 mm 3 m/s 745 mmHg 80%
17:00 +1°C° 0 mm 3 m/s 744 mmHg 81%
18:00 +1°C° 0 mm 3 m/s 744 mmHg 82%
19:00 +1°C° 0 mm 3 m/s 744 mmHg 82%
20:00 +1°C° 0 mm 3 m/s 744 mmHg 82%
21:00 0°C° 0 mm 3 m/s 743 mmHg 83%
22:00 -1°C° 0 mm 4 m/s 743 mmHg 84%
23:00 -1°C° 0 mm 4 m/s 743 mmHg 86%

Depois de amanhã, 27 Novembro, Sexta-feira

Tempo Temperatura Precipitação Vento Pressão Humidade
00:00 0°C° 0 mm 3 m/s 742 mmHg 87%
01:00 0°C° 0 mm 3 m/s 742 mmHg 89%
02:00 0°C° 0 mm 3 m/s 742 mmHg 90%
03:00 0°C° 0.3 mm 3 m/s 742 mmHg 92%
04:00 +1°C° 0.3 mm 3 m/s 741 mmHg 93%
05:00 +1°C° 0.3 mm 3 m/s 741 mmHg 94%
06:00 +1°C° 0.3 mm 3 m/s 741 mmHg 94%
07:00 +1°C° 0.3 mm 3 m/s 741 mmHg 94%
08:00 +2°C° 0.3 mm 3 m/s 741 mmHg 94%
09:00 +2°C° 0.6 mm 3 m/s 741 mmHg 94%
10:00 +2°C° 0.6 mm 3 m/s 740 mmHg 95%
11:00 +2°C° 0.6 mm 3 m/s 740 mmHg 95%
12:00 +3°C° 0.6 mm 3 m/s 740 mmHg 95%
13:00 +3°C° 0.6 mm 3 m/s 740 mmHg 95%
14:00 +3°C° 0.6 mm 3 m/s 740 mmHg 95%
15:00 +2°C° 0.5 mm 3 m/s 741 mmHg 91%
16:00 +1°C° 0.5 mm 3 m/s 741 mmHg 86%
17:00 0°C° 0.5 mm 4 m/s 741 mmHg 81%
18:00 0°C° 0 mm 3 m/s 742 mmHg 84%
19:00 0°C° 0 mm 3 m/s 742 mmHg 87%
20:00 -1°C° 0 mm 3 m/s 743 mmHg 90%
21:00 -1°C° 0.1 mm 3 m/s 743 mmHg 91%
22:00 -1°C° 0.1 mm 3 m/s 744 mmHg 91%
23:00 -1°C° 0.1 mm 3 m/s 744 mmHg 92%

28 Novembro, Sábado

Tempo Temperatura Precipitação Vento Pressão Humidade
00:00 -1°C° 0 mm 3 m/s 745 mmHg 91%
01:00 -1°C° 0 mm 3 m/s 745 mmHg 90%
02:00 -1°C° 0 mm 3 m/s 746 mmHg 88%
03:00 -1°C° 0.1 mm 3 m/s 746 mmHg 90%
04:00 -1°C° 0.1 mm 3 m/s 747 mmHg 91%
05:00 -1°C° 0.1 mm 3 m/s 747 mmHg 92%
06:00 -1°C° 0 mm 3 m/s 748 mmHg 92%
07:00 -1°C° 0 mm 3 m/s 749 mmHg 92%
08:00 -2°C° 0 mm 4 m/s 749 mmHg 91%
09:00 -2°C° 0 mm 4 m/s 750 mmHg 90%
10:00 -1°C° 0 mm 4 m/s 750 mmHg 88%
11:00 -1°C° 0 mm 4 m/s 751 mmHg 87%
12:00 -2°C° 0 mm 4 m/s 751 mmHg 87%
13:00 -2°C° 0 mm 4 m/s 752 mmHg 87%
14:00 -2°C° 0 mm 4 m/s 752 mmHg 86%
15:00 -1°C° 0 mm 3 m/s 753 mmHg 86%
16:00 -1°C° 0 mm 3 m/s 753 mmHg 86%
17:00 -1°C° 0 mm 3 m/s 754 mmHg 85%
18:00 -1°C° 0 mm 3 m/s 754 mmHg 86%
19:00 -1°C° 0 mm 3 m/s 754 mmHg 87%
20:00 -2°C° 0 mm 3 m/s 755 mmHg 87%
21:00 -2°C° 0 mm 2 m/s 755 mmHg 88%
22:00 -2°C° 0 mm 2 m/s 755 mmHg 88%
23:00 -2°C° 0 mm 2 m/s 756 mmHg 88%

29 Novembro, Domingo

Tempo Temperatura Precipitação Vento Pressão Humidade
00:00 -2°C° 0 mm 2 m/s 756 mmHg 89%
01:00 -2°C° 0 mm 2 m/s 756 mmHg 91%
02:00 -2°C° 0 mm 2 m/s 756 mmHg 92%
03:00 -2°C° 0 mm 2 m/s 756 mmHg 92%
04:00 -2°C° 0 mm 2 m/s 757 mmHg 92%
05:00 -2°C° 0 mm 2 m/s 757 mmHg 92%
06:00 -2°C° 0 mm 2 m/s 757 mmHg 92%
07:00 -2°C° 0 mm 2 m/s 757 mmHg 92%
08:00 -2°C° 0 mm 2 m/s 757 mmHg 92%
09:00 -2°C° 0 mm 2 m/s 758 mmHg 88%
10:00 -2°C° 0 mm 2 m/s 758 mmHg 85%
11:00 -1°C° 0 mm 2 m/s 758 mmHg 82%
12:00 -1°C° 0 mm 2 m/s 758 mmHg 80%
13:00 -1°C° 0 mm 2 m/s 758 mmHg 78%
14:00 -1°C° 0 mm 2 m/s 758 mmHg 76%
15:00 -1°C° 0 mm 2 m/s 758 mmHg 77%
16:00 -1°C° 0 mm 2 m/s 758 mmHg 79%
17:00 -2°C° 0 mm 2 m/s 758 mmHg 80%
18:00 -2°C° 0 mm 2 m/s 758 mmHg 81%
19:00 -2°C° 0 mm 2 m/s 758 mmHg 81%
20:00 -2°C° 0 mm 2 m/s 758 mmHg 82%
21:00 -2°C° 0 mm 2 m/s 758 mmHg 80%
22:00 -2°C° 0 mm 2 m/s 758 mmHg 79%
23:00 -2°C° 0 mm 3 m/s 758 mmHg 77%

30 Novembro, Segunda-feira

Tempo Temperatura Precipitação Vento Pressão Humidade
00:00 -2°C° 0 mm 2 m/s 758 mmHg 77%
01:00 -2°C° 0 mm 2 m/s 758 mmHg 76%
02:00 -2°C° 0 mm 2 m/s 757 mmHg 76%
03:00 -2°C° 0 mm 3 m/s 757 mmHg 78%
04:00 -2°C° 0 mm 3 m/s 757 mmHg 80%
05:00 -2°C° 0 mm 3 m/s 757 mmHg 82%
06:00 -2°C° 0 mm 3 m/s 757 mmHg 83%
07:00 -2°C° 0 mm 3 m/s 757 mmHg 85%
08:00 -2°C° 0 mm 3 m/s 757 mmHg 86%
09:00 -2°C° 0 mm 3 m/s 756 mmHg 85%
10:00 -2°C° 0 mm 3 m/s 756 mmHg 85%
11:00 -2°C° 0 mm 3 m/s 756 mmHg 84%
12:00 -1°C° 0 mm 3 m/s 756 mmHg 86%
13:00 -1°C° 0 mm 3 m/s 756 mmHg 88%
14:00 -1°C° 0 mm 3 m/s 755 mmHg 89%
15:00 -1°C° 0.2 mm 2 m/s 755 mmHg 92%
16:00 -1°C° 0.2 mm 2 m/s 755 mmHg 94%
17:00 -2°C° 0.2 mm 2 m/s 755 mmHg 96%
18:00 -1°C° 0.1 mm 2 m/s 755 mmHg 97%
19:00 -1°C° 0.1 mm 2 m/s 754 mmHg 97%
20:00 -1°C° 0.1 mm 2 m/s 754 mmHg 97%
21:00 +1°C° 0 mm 1 m/s 754 mmHg 97%
22:00 +2°C° 0 mm 1 m/s 754 mmHg 97%
23:00 +2°C° 0 mm 1 m/s 754 mmHg 97%
Mostrar mais

Necessitamos do seu Consentimento

A Meteoprog e os seus Fornecedores de Serviços podem armazenar e aceder a dados pessoais como cookies, identificadores do dispositivo ou outras tecnologias semelhantes existentes no seu dispositivo e processar estes dados para personalizar conteúdos e anúncios, assim como funcionalidades nas redes sociais e análise de tráfego.

  • Armazenar e/ou aceder a informações no seu dispositivo

    Os cookies, identificadores do dispositivo ou outras informações podem ser armazenados ou acedidos no seu dispositivo, para os fins acima indicados.

  • Anúncios e conteúdos personalizados, medição de anúncios e conteúdos, dados sobre o público-alvo e desenvolvimento de produtos

    Os anúncios e os conteúdos podem ser personalizados com base num perfil. Podem ser adicionados dados adicionais para uma maior personalização dos anúncios e dos conteúdos. A eficácia dos anúncios e dos conteúdos pode ser medida. Podem ser obtidas informações sobre o público que visualizou os anúncios e os conteúdos. Estes dados podem ser usados para desenvolver ou melhorar sistemas, softwares ou a experiência do utilizador.

Ao clicar em "Eu concordo”, permitirá o uso de cookies, identificadores do dispositivo e web beacons mencionados ou outras tecnologias semelhantes. As configurações do navegador do seu dispositivo podem ser alteradas.

Para certos fins, podem ser invocados interesses legítimos ao invés de consentimento. Pode ler mais informação sobre este assunto na nossa Política de Privacidade e Cookies.